Location: Greenwich
(51.4790°N, 0.0090°E)
Time: 14:42:40
(UTC+01:00)

Explorer 7 - Pass Details

Date: 20 April 2024
Orbit: 467 x 625 km, 50.3° (Epoch: 24 May)

Event Time Altitude Azimuth Distance (km) Brightness Sun altitude
Rises 12:41:38 0° 231° (SW) 2,898 10.8 50.2°
Reaches altitude 10° 12:44:01 10° 225° (SW) 2,001 10.2 50.2°
Maximum altitude 12:48:23 43° 154° (SSE) 891 9.8 50.3°
Drops below altitude 10° 12:52:44 10° 84° (E) 1,997 9.8 50.3°
Sets 12:55:07 0° 78° (ENE) 2,892 10.4 50.3°
